| Shipment Reliability and Frequency | Volume of Goods |
|---|---|
| Avg. Shipments per Month: 8.08 | Average TEU per month: 11.32 |
| Active Months: 8 | Average TEU per Shipment: 1.40 |
| Shipment Frequency Std. Dev.: 9.07 |
| Company Name | Shipments |
|---|---|
| JIAJIAGREAT INC | 41 shipments |
| AXIOM DYNAMICS INC | 25 shipments |
| JNSOIJF INC | 12 shipments |
| KISSBUW INC | 7 shipments |
| FLYBIRD TRADE INC | 4 shipments |
| ZENNORAQ INC | 4 shipments |
| SIXGOD COOL INC | 2 shipments |
| FORTGOD INC | 1 shipments |
| VENUS GROUP | 1 shipments |
| HS Code | Shipments |
|---|---|
| 830590.0 Stationery; fittings for loose-leaf binders or files, letter clips, letter corners, paper clips, indexing tags and the like, staples in strips (for offices, upholstery, packaging), of base metal | 88 shipments |
| 392010.0 Plastics; plates, sheets, film, foil and strip (not self-adhesive); non-cellular and not reinforced, laminated, supported or similarly combined with other materials, n.e.c. in chapter 39 | 3 shipments |
| 846711.0 Tools; for working in the hand, pneumatic, hydraulic or with self-contained electric or non-electric motor | 3 shipments |
| 390760.0 Polyacetals, other polyethers and epoxide resins, in primary forms; polycarbonates, alkyd resins, polyallyl esters and other polyesters, in primary forms | 1 shipments |
| 441033.0 Particle board, oriented strand board (OSB) and similar board (e.g. waferboard) of wood or other ligneous materials, whether or not agglomerated with resins or other organic binding substances | 1 shipments |
| 841520.0 Air conditioning machines; comprising a motor driven fan and elements for changing the temperature and humidity, including those machines in which the humidity cannot be separately regulated | 1 shipments |
| Arrival Date | Bill Of Lading | Consignee | Weight | HS Code | Description |
|---|---|---|---|---|---|
| 2026-04-10 | NYFCYFSE26021270 | AXIOM DYNAMICS INC | 9678.0 kg | 830590.0 | PLASTIC CLIPS |
| 2026-04-03 | TLKPNGBLAX63124X | ZENNORAQ INC | 15515.0 kg | 830590.0 | PLASTIC CLIPS |
| 2026-04-03 | CHQFHNB26030159 | ZENNORAQ INC | 19530.0 kg | 830590.0 | PLASTIC CLIPS |
| 2026-03-24 | NHSONHT26030324 | ZENNORAQ INC | 13760.0 kg | 830590.0 | PLASTIC CLIPS |
| 2026-03-24 | NHSONHT26030327 | ZENNORAQ INC | 11699.0 kg | 830590.0 | PLASTIC CLIPS |
| 2026-03-06 | CHQFHNB26020081 | AXIOM DYNAMICS INC | 13563.0 kg | 830590.0 | PLASTIC CLIPS |
| 2026-02-09 | THGLNBO26011335 | AXIOM DYNAMICS INC | 12251.0 kg | 830590.0 | PLASTIC CLIPS |
| 2026-02-07 | NHSONHT26011111 | AXIOM DYNAMICS INC | 12516.0 kg | 830590.0 | PLASTIC CLIPS |
| 2026-02-07 | NHSONHT26011112 | AXIOM DYNAMICS INC | 11393.0 kg | 830590.0 | PLASTIC CLIPS |
| 2026-02-03 | NHSONHT26010730 | AXIOM DYNAMICS INC | 7992.0 kg | 830590.0 | PLASTIC CLIPS |
| 2026-01-28 | NHSONHT26010574 | AXIOM DYNAMICS INC | 9148.0 kg | 830590.0 | PLASTIC CLIPS |
| 2026-01-28 | NHSONHT26010576 | AXIOM DYNAMICS INC | 9621.0 kg | 830590.0 | PLASTIC CLIPS |
| 2026-01-22 | NHSONHT26010127 | AXIOM DYNAMICS INC | 9535.0 kg | 830590.0 | PLASTIC CLIPS |
| 2026-01-22 | NHSONHT26010128 | AXIOM DYNAMICS INC | 10074.0 kg | 830590.0 | PLASTIC CLIPS |
| 2026-01-22 | NHSONHT26010183 | AXIOM DYNAMICS INC | 11509.0 kg | 830590.0 | PLASTIC CLIPS |
| 2026-01-15 | NYFCYFSE26010127 | AXIOM DYNAMICS INC | 12000.0 kg | 830590.0 | PLASTIC CLIPS |
| 2026-01-14 | NHSONHT25121732 | AXIOM DYNAMICS INC | 16990.0 kg | 830590.0 | PLASTIC CLIPS |
| 2026-01-14 | NHSONHT25121733 | AXIOM DYNAMICS INC | 16244.0 kg | 830590.0 | PLASTIC CLIPS |
| 2026-01-08 | NHSONHT25121283 | AXIOM DYNAMICS INC | 12319.0 kg | 830590.0 | PLASTIC CLIPS |
| 2026-01-07 | NYFCYFSE25111123 | JNSOIJF INC | 11891.0 kg | 830590.0 | PLASTIC CLIPS |
| 2026-01-02 | NHSONHT25120883 | AXIOM DYNAMICS INC | 12000.0 kg | 390760.0 | PLASTIC CLIPS CERAMIC BOTTLE |
| 2025-12-31 | NHSONHT25120854 | AXIOM DYNAMICS INC | 13467.0 kg | 830590.0 | PLASTIC CLIPS |
| 2025-12-31 | NHSONHT25120860 | AXIOM DYNAMICS INC | 9409.0 kg | 830590.0 | PLASTIC CLIPS |
| 2025-12-31 | NHSONHT25120862 | AXIOM DYNAMICS INC | 10534.0 kg | 830590.0 | PLASTIC CLIPS |
| 2025-12-26 | NYFCYFSE25120017 | KISSBUW INC | 12159.0 kg | 830590.0 | PLASTIC CLIPS |
| 2025-12-24 | NHSONHT25120444 | AXIOM DYNAMICS INC | 10220.0 kg | 830590.0 | PLASTIC CLIPS |
| 2025-12-24 | NHSONHT25120448 | AXIOM DYNAMICS INC | 9133.0 kg | 830590.0 | PLASTIC CLIPS |
| 2025-12-24 | NHSONHT25120450 | AXIOM DYNAMICS INC | 11196.0 kg | 830590.0 | PLASTIC CLIPS |
| 2025-12-24 | NYFCYFSE25120719 | AXIOM DYNAMICS INC | 13955.0 kg | 830590.0 | PLASTIC CLIPS |
| 2025-12-24 | NYFCYFSE25120720 | AXIOM DYNAMICS INC | 10255.0 kg | 830590.0 | PLASTIC CLIPS |
| 2025-12-24 | NYFCYFSE25120721 | AXIOM DYNAMICS INC | 10382.0 kg | 830590.0 | PLASTIC CLIPS |
| 2025-12-17 | NHSONHT25120048 | KISSBUW INC | 12000.0 kg | 830590.0 | PLASTIC CLIPS |
| 2025-12-17 | NHSONHT25120091 | KISSBUW INC | 10958.0 kg | 830590.0 | PLASTIC CLIPS |
| 2025-12-17 | NYFCYFSE25120431 | KISSBUW INC | 13435.0 kg | 830590.0 | PLASTIC CLIPS |
| 2025-12-17 | NYFCYFSE25120432 | KISSBUW INC | 12000.0 kg | 830590.0 | PLASTIC CLIPS |
| 2025-12-16 | BKGASHF25110013 | FLYBIRD TRADE INC | 22290.0 kg | 846711.0 | WRENCH BIT |
| 2025-12-11 | NHSONHT25111315 | JNSOIJF INC | 13514.0 kg | 830590.0 | PLASTIC CLIPS |
| 2025-12-11 | NHSONHT25111321 | JNSOIJF INC | 9692.0 kg | 830590.0 | PLASTIC CLIPS |
| 2025-12-11 | NHSONHT25111357 | JNSOIJF INC | 12000.0 kg | 830590.0 | PLASTIC CLIPS |
| 2025-12-07 | WHLC031F595715 | VENUS GROUP | 11708.0 kg | 830590.0 | PLASTIC CLIPS THIS SHIPMENT CONTAINS NO (SOLID) WOOD PACKING MATERIALS ALSO SHIPPER= ALSO CONSIGNEE= TEL=+ ( ) - A LSO NOTIFY= TEL=+ ( ) - |
| 2025-12-05 | BKGASHF25110017 | FLYBIRD TRADE INC | 20275.0 kg | 846711.0 | WRENCH BIT |
| 2025-12-05 | NHSONHT25110812 | JNSOIJF INC | 12000.0 kg | 830590.0 | PLASTIC CLIPS |
| 2025-12-03 | NHSONHT25110818 | JNSOIJF INC | 12000.0 kg | 830590.0 | PLASTIC CLIPS |
| 2025-12-03 | NHSONHT25110826 | JNSOIJF INC | 12000.0 kg | 830590.0 | PLASTIC CLIPS |
| 2025-12-03 | NHSONHT25110827 | JNSOIJF INC | 10922.0 kg | 830590.0 | PLASTIC CLIPS |
| 2025-12-02 | NYFCYFSE25100858 | KISSBUW INC | 10848.0 kg | 830590.0 | PLASTIC CLIPS |
| 2025-12-02 | NYFCYFSE25100859 | KISSBUW INC | 11164.0 kg | 830590.0 | PLASTIC CLIPS |
| 2025-11-26 | NHSONHT25110493 | JNSOIJF INC | 14179.0 kg | 830590.0 | PLASTIC CLIPS |
| 2025-11-26 | NHSONHT25110494 | JNSOIJF INC | 10497.0 kg | 830590.0 | PLASTIC CLIPS |
| 2025-11-26 | NHSONHT25110495 | JNSOIJF INC | 12657.0 kg | 830590.0 | PLASTIC CLIPS |